This demonstration page uses our WeatherBlox Daily Observations layout. Learn more.

Left ArrowRight Arrow

41.86663, -103.66717

Hourly Observations for October 9, 2018

Temp ( °F °C ) Dew Point ( °F °C ) Humidity (%) Winds ( mph kmh ) Pressure ( in mb ) Visibility ( mi km ) Precip ( " mm )
12:01 am 00:01 Mostly Cloudy 35 1.7 35 1.7 100 100 Calm 30.15 1021 10 16 0.00 0.00
12:53 am 00:53 Cloudy 35 1.7 35 1.7 100 100 NNW 3 6 30.10 1019 10 16 0.00 0.00
1:53 am 01:53 Cloudy 35 1.7 34 1.1 96 96 NE 5 7 30.10 1019 10 16 0.00 0.00
2:53 am 02:53 Cloudy 35 1.7 35 1.7 100 100 N 3 6 30.09 1019 10 16 0.00 0.00
3:21 am 03:21 Cloudy 35 1.7 34 1.1 96 96 N 5 7 30.12 1020 10 16 0.00 0.00
3:53 am 03:53 Cloudy 35 1.7 34 1.1 96 96 N 3 6 30.08 1019 10 16 0.00 0.00
4:53 am 04:53 Cloudy 35 1.7 34 1.1 96 96 N 6 9 30.08 1019 10 16 0.00 0.00
5:20 am 05:20 Cloudy 35 1.7 34 1.1 96 96 NNE 6 9 30.15 1021 10 16 0.00 0.00
5:51 am 05:51 Cloudy 34 1 34 1 100 100 NNE 5 7 30.12 1020 10 16 0.00 0.03
5:53 am 05:53 Cloudy 34 1.1 34 1.1 100 100 NNE 5 7 30.08 1019 10 16 0.00 0.03
6:53 am 06:53 Cloudy 34 1.1 33 0.6 97 97 N 6 9 30.10 1019 10 16 0.00 0.00
7:53 am 07:53 Cloudy 33 0.6 32 0 96 96 N 7 11 30.10 1019 10 16 0.00 0.00
8:11 am 08:11 Partly Cloudy 34 1.1 33 0.6 97 97 NNE 7 11 30.15 1021 10 16 0.00 0.00
8:53 am 08:53 Sunny 35 1.7 33 0.6 93 93 NNE 8 13 30.09 1019 10 16 0.00 0.00
9:32 am 09:32 Mostly Cloudy 36 2 34 1 93 93 NNE 10 17 30.15 1021 10 16 0.00 0.00
9:53 am 09:53 Mostly Cloudy 36 2.2 33 0.6 89 89 N 10 17 30.09 1019 10 16 0.00 0.00
10:03 am 10:03 Partly Cloudy 37 2.8 33 0.6 86 86 NNE 7 11 30.12 1020 10 16 0.00 0.00
10:38 am 10:38 Mostly Cloudy 37 3 32 0 81 81 N 7 11 30.09 1019 10 16 0.00 0.00
10:53 am 10:53 Mostly Cloudy 39 3.9 33 0.6 79 79 NNE 8 13 30.07 1018 10 16 0.00 0.00
11:53 am 11:53 Mostly Cloudy 39 3.9 33 0.6 79 79 NNE 9 15 30.07 1018 10 16 0.00 0.00
12:53 pm 12:53 Cloudy 40 4.4 33 0.6 77 77 NNE 8 13 30.06 1018 10 16 0.00 0.00
1:53 pm 13:53 Cloudy 41 5 33 0.6 73 73 N 10 17 30.03 1017 10 16 0.00 0.00
2:53 pm 14:53 Mostly Cloudy 40 4.4 33 0.6 77 77 N 12 19 30.01 1016 10 16 0.00 0.00
3:06 pm 15:06 Partly Cloudy 41 5 34 1 76 76 N 10 17 30.00 1016 10 16 0.00 0.00
3:17 pm 15:17 Mostly Cloudy 40 4.4 33 0.6 77 77 N 10 17 30.00 1016 10 16 0.00 0.00
3:33 pm 15:33 Partly Cloudy 40 4.4 32 0 73 73 N 13 20 30.00 1016 10 16 0.00 0.00
3:53 pm 15:53 Mostly Sunny 40 4.4 32 0 73 73 NNE 10 17 30.00 1016 10 16 0.00 0.00
4:42 pm 16:42 Cloudy 39 4 32 0 75 75 NNE 10 17 30.00 1016 10 16 0.00 0.00
4:53 pm 16:53 Cloudy 39 3.9 33 0.6 79 79 N 9 15 30.02 1017 10 16 0.00 0.00
5:44 pm 17:44 Cloudy 37 3 34 1 87 87 N 9 15 30.03 1017 10 16 0.00 0.00
5:53 pm 17:53 Cloudy 38 3.3 33 0.6 83 83 N 9 15 30.03 1017 10 16 0.00 0.00
6:53 pm 18:53 Cloudy 37 2.8 33 0.6 86 86 N 9 15 30.02 1017 10 16 0.00 0.00
7:53 pm 19:53 Mostly Cloudy 36 2.2 32 0 86 86 N 12 19 30.03 1017 10 16 0.00 0.00
8:53 pm 20:53 Mostly Clear 36 2.2 32 0 86 86 N 12 19 30.03 1017 10 16 0.00 0.00
9:26 pm 21:26 Mostly Cloudy 36 2 32 0 87 87 N 8 13 30.09 1019 10 16 0.00 0.00
9:53 pm 21:53 Mostly Cloudy 35 1.7 32 0 89 89 N 8 13 30.05 1018 10 16 0.00 0.00
10:39 pm 22:39 Cloudy 35 1.7 31 -0.6 85 85 N 7 11 30.09 1019 10 16 0.00 0.00
10:53 pm 22:53 Cloudy 35 1.7 32 0 89 89 NW 7 11 30.04 1017 10 16 0.00 0.00
11:03 pm 23:03 Cloudy 35 1.7 31 -0.6 85 85 NNW 7 11 30.09 1019 10 16 0.00 0.00
11:12 pm 23:12 Cloudy 36 2 32 0 87 87 N 7 11 30.09 1019 10 16 0.00 0.00
11:53 pm 23:53 Cloudy 35 1.7 32 0 89 89 NNW 5 7 30.05 1018 10 16 0.00 0.00

Powered by AerisWeather